FW3855 Weather Reports


time (UTC)temp
F
wind
direction
speed
knots
gust
knots
rain 1hr
in
rain 24hr
in
rain mn
in
humidity
%
barometer
mb
20260904233904 87 72 4.3 11.3 0.00 0.00 0.00 13 1016.1
20260904233357 87 228 4.3 12.2 0.00 0.00 0.00 14 1016.1
20260904232852 87 237 5.2 12.2 0.00 0.00 0.00 16 1016.1
20260904232346 87 167 6.1 20.9 0.00 0.00 0.00 15 1016.4
20260904231839 87 131 6.1 20.9 0.00 0.00 0.00 14 1016.5
20260904231334 87 192 4.3 10.4 0.00 0.00 0.00 13 1016.4
20260904230827 87 240 4.3 13.9 0.00 0.00 0.00 14 1016.2
20260904230321 87 82 5.2 13.9 0.00 0.00 0.00 14 1016.4
20260904225815 87 210 7.0 14.8 0.00 0.00 0.00 15 1016.5
20260904225309 87 204 7.8 18.2 0.00 0.00 0.00 14 1016.5
20260904224809 87 176 7.8 18.2 0.00 0.00 0.00 12 1016.6
20260904224308 87 203 7.0 20.9 0.00 0.00 0.00 12 1016.6
20260904223809 87 286 6.1 20.9 0.00 0.00 0.00 11 1016.5
20260904223311 87 212 6.1 17.4 0.00 0.00 0.00 11 1016.5
20260904222306 87 127 5.2 11.3 0.00 0.00 0.00 12 1016.5
20260904221806 88 319 4.3 13.9 0.00 0.00 0.00 13 1016.6
20260904221304 87 187 5.2 15.6 0.00 0.00 0.00 13 1016.7
20260904220805 86 167 7.0 16.5 0.00 0.00 0.00 17 1016.7
20260904220305 86 149 7.0 22.6 0.00 0.00 0.00 17 1016.6
20260904215803 85 203 7.0 22.6 0.00 0.00 0.00 17 1016.5
20260904215305 86 188 7.0 15.6 0.00 0.00 0.00 16 1016.7
20260904214802 86 202 7.8 19.1 0.00 0.00 0.00 16 1016.8
20260904214300 86 179 7.0 19.1 0.00 0.00 0.00 15 1016.8
20260904213805 86 173 7.0 16.5 0.00 0.00 0.00 14 1016.8
20260904213300 86 68 5.2 16.5 0.00 0.00 0.00 15 1016.8
20260904212752 87 181 6.1 19.1 0.00 0.00 0.00 15 1016.8
20260904212253 86 185 7.0 19.1 0.00 0.00 0.00 16 1016.8
20260904211752 86 115 6.1 12.2 0.00 0.00 0.00 16 1016.8
20260904211251 86 193 7.8 19.1 0.00 0.00 0.00 16 1016.9
20260904210750 86 148 7.8 19.1 0.00 0.00 0.00 16 1017.0
20260904210252 86 196 6.1 17.4 0.00 0.00 0.00 15 1017.2
20260904205753 86 276 5.2 17.4 0.00 0.00 0.00 17 1017.2
20260904204751 86 207 6.1 16.5 0.00 0.00 0.00 17 1016.9
20260904202751 86 165 5.2 17.4 0.00 0.00 0.00 18 1017.5
20260904202251 86 184 4.3 15.6 0.00 0.00 0.00 18 1017.4
20260904201252 85 74 6.1 25.2 0.00 0.00 0.00 19 1017.4
20260904200754 85 241 5.2 15.6 0.00 0.00 0.00 22 1017.4
20260904194752 84 179 6.1 26.1 0.00 0.00 0.00 25 1017.6
20260904193752 84 104 4.3 13.0 0.00 0.00 0.00 26 1017.6
20260904193251 84 217 6.1 18.2 0.00 0.00 0.00 28 1017.7
20260904192750 83 98 7.0 20.9 0.00 0.00 0.00 28 1017.7
20260904192252 83 210 7.0 20.9 0.00 0.00 0.00 27 1017.7
20260904191253 83 151 6.1 18.2 0.00 0.00 0.00 28 1018.0
20260904190748 82 281 5.2 15.6 0.00 0.00 0.00 28 1017.8
20260904190247 83 352 6.1 14.8 0.00 0.00 0.00 30 1018.0
20260904185748 82 149 7.8 20.9 0.00 0.00 0.00 30 1018.0
20260904185247 82 139 7.0 20.9 0.00 0.00 0.00 32 1018.2
20260904184745 81 195 6.1 20.9 0.00 0.00 0.00 33 1018.1
20260904184245 82 214 6.1 14.8 0.00 0.00 0.00 33 1018.2
20260904183745 82 103 7.0 14.8 0.00 0.00 0.00 30 1018.2
20260904183245 81 96 7.8 18.2 0.00 0.00 0.00 32 1018.2
20260904182744 81 194 6.1 18.2 0.00 0.00 0.00 31 1018.2
20260904182241 82 102 5.2 16.5 0.00 0.00 0.00 31 1018.3
20260904181240 80 195 7.0 19.1 0.00 0.00 0.00 33 1018.2
20260904180738 80 141 7.8 19.1 0.00 0.00 0.00 34 1018.3
20260904180237 80 63 6.1 16.5 0.00 0.00 0.00 33 1018.3
20260904175236 80 187 4.3 10.4 0.00 0.00 0.00 34 1018.3
20260904174738 80 191 5.2 17.4 0.00 0.00 0.00 34 1018.3
20260904174236 79 83 5.2 17.4 0.00 0.00 0.00 36 1018.3
20260904173738 79 142 4.3 15.6 0.00 0.00 0.00 36 1018.4
20260904173235 79 158 6.1 19.1 0.00 0.00 0.00 37 1018.4
20260904172234 78 123 7.8 25.2 0.00 0.00 0.00 37 1018.4
20260904171734 78 123 7.8 25.2 0.00 0.00 0.00 37 1018.4
20260904170735 77 103 7.8 20.0 0.00 0.00 0.00 40 1018.3
20260904170229 77 153 7.0 20.0 0.00 0.00 0.00 39 1018.2
20260904165723 77 169 7.0 15.6 0.00 0.00 0.00 39 1018.1
20260904165217 77 131 5.2 16.5 0.00 0.00 0.00 39 1018.1
20260904164711 77 232 5.2 19.1 0.00 0.00 0.00 40 1018.2
20260904164205 77 79 5.2 19.1 0.00 0.00 0.00 40 1018.1
20260904163700 77 233 6.1 16.5 0.00 0.00 0.00 40 1018.1
20260904163153 76 141 6.1 19.1 0.00 0.00 0.00 40 1018.1
20260904162648 77 165 5.2 19.1 0.00 0.00 0.00 39 1018.2
20260904162140 76 255 6.1 15.6 0.00 0.00 0.00 38 1018.0
20260904161635 76 101 5.2 15.6 0.00 0.00 0.00 39 1018.1
20260904161129 76 119 5.2 15.6 0.00 0.00 0.00 40 1018.1
20260904160623 75 266 6.1 15.6 0.00 0.00 0.00 41 1018.1
20260904160118 75 148 6.1 15.6 0.00 0.00 0.00 41 1017.8
20260904155611 75 125 7.0 15.6 0.00 0.00 0.00 41 1018.0
20260904155105 75 169 7.0 19.1 0.00 0.00 0.00 40 1017.8
20260904154559 75 183 5.2 19.1 0.00 0.00 0.00 39 1017.8
20260904154054 75 195 5.2 17.4 0.00 0.00 0.00 37 1017.8
20260904153041 74 160 5.2 13.9 0.00 0.00 0.00 36 1017.7
20260904152535 74 98 5.2 13.0 0.00 0.00 0.00 35 1017.7
20260904152030 74 148 4.3 13.9 0.00 0.00 0.00 34 1017.7
20260904151523 74 139 4.3 13.9 0.00 0.00 0.00 32 1017.7
20260904151016 74 121 5.2 21.7 0.00 0.00 0.00 31 1017.7
20260904150511 74 181 5.2 21.7 0.00 0.00 0.00 30 1017.6
20260904150005 74 181 3.5 14.8 0.00 0.00 0.00 29 1017.6
20260904145459 74 191 2.6 14.8 0.00 0.00 0.00 28 1017.6
20260904144953 74 224 2.6 12.2 0.00 0.00 0.00 27 1017.5
20260904144447 73 77 3.5 12.2 0.00 0.00 0.00 26 1017.5
20260904143941 73 262 3.5 8.7 0.00 0.00 0.00 24 1017.5
20260904143435 73 167 2.6 8.7 0.00 0.00 0.00 24 1017.4
20260904142929 73 268 1.7 8.7 0.00 0.00 0.00 21 1017.4
20260904142429 73 325 1.7 8.7 0.00 0.00 0.00 21 1017.4
20260904141926 72 231 2.6 9.6 0.00 0.00 0.00 18 1017.3
20260904141425 72 215 1.7 9.6 0.00 0.00 0.00 19 1017.4
20260904140923 72 300 1.7 9.6 0.00 0.00 0.00 18 1017.3
20260904135920 71 252 2.6 10.4 0.00 0.00 0.00 19 1017.0
20260904134913 0 0.0 0.0 0.00 0.00 0.00 1016.7
20260904134412 0 0.0 0.0 0.00 0.00 0.00 1016.8
20260904133909 0 0.0 0.0 0.00 0.00 0.00 1016.7
20260904133320 0 0.0 0.0 0.00 0.00 0.00 1016.7
20260904132819 0 0.0 0.0 0.00 0.00 0.00 1016.7
20260904132212 0 0.0 0.0 0.00 0.00 0.00 1016.7
20260904131209 0 0.0 0.0 0.00 0.00 0.00 1016.6
20260904130710 0 0.0 0.0 0.00 0.00 0.00 1016.6
20260904124515 0 0.0 0.0 0.00 0.00 0.00 1016.4
20260904123922 0 0.0 0.0 0.00 0.00 0.00 1016.4
20260904123412 0 0.0 0.0 0.00 0.00 0.00 1016.4
20260904122412 0 186 2.6 7.8 0.00 0.00 0.00 1016.4
20260904121813 0 186 2.6 4.3 0.00 0.00 0.00 1016.2
20260904121250 70 186 2.6 7.8 0.00 0.00 0.00 7 1016.4
20260904120746 70 120 2.6 7.8 0.00 0.00 0.00 7 1016.4
20260904120246 70 126 2.6 7.8 0.00 0.00 0.00 7 1016.4
20260904115746 70 142 2.6 6.1 0.00 0.00 0.00 7 1016.4
20260904115245 70 124 3.5 7.8 0.00 0.00 0.00 7 1016.4
20260904114743 70 152 2.6 7.8 0.00 0.00 0.00 7 1016.4
20260904114242 70 158 2.6 9.6 0.00 0.00 0.00 7 1016.4
20260904113742 70 212 2.6 9.6 0.00 0.00 0.00 7 1016.4
20260904112741 70 96 3.5 8.7 0.00 0.00 0.00 7 1016.4
20260904111739 70 224 3.5 10.4 0.00 0.00 0.00 7 1016.4
20260904111241 70 148 2.6 10.4 0.00 0.00 0.00 7 1016.4
20260904110240 70 167 1.7 6.1 0.00 0.00 0.00 8 1016.2
20260904105740 70 130 2.6 6.1 0.00 0.00 0.00 8 1016.1
20260904104742 71 203 3.5 7.0 0.00 0.00 0.00 9 1016.1
20260904104235 71 169 3.5 7.0 0.00 0.00 0.00 9 1016.0
20260904103735 71 181 3.5 7.8 0.00 0.00 0.00 9 1016.1
20260904103236 71 192 3.5 7.8 0.00 0.00 0.00 9 1016.1
20260904102736 71 162 2.6 7.8 0.00 0.00 0.00 9 1016.1
20260904102237 71 127 4.3 9.6 0.00 0.00 0.00 10 1016.0
20260904101736 71 131 5.2 9.6 0.00 0.00 0.00 9 1015.9
20260904101236 71 140 4.3 12.2 0.00 0.00 0.00 10 1015.9
20260904100736 71 179 3.5 12.2 0.00 0.00 0.00 10 1015.9
20260904095737 70 169 2.6 8.7 0.00 0.00 0.00 11 1015.9
20260904095237 71 157 3.5 8.7 0.00 0.00 0.00 11 1015.8
20260904094740 71 103 4.3 9.6 0.00 0.00 0.00 12 1015.8
20260904093737 71 119 4.3 11.3 0.00 0.00 0.00 11 1015.8
20260904092739 73 98 4.3 15.6 0.00 0.00 0.00 16 1015.7
20260904092238 72 203 3.5 7.0 0.00 0.00 0.00 14 1015.7
20260904091739 71 103 3.5 8.7 0.00 0.00 0.00 16 1015.7
20260904091232 70 185 2.6 8.7 0.00 0.00 0.00 15 1015.7
20260904090728 70 110 2.6 6.1 0.00 0.00 0.00 12 1015.8
20260904090222 70 216 1.7 5.2 0.00 0.00 0.00 11 1015.8
20260904085715 70 157 1.7 5.2 0.00 0.00 0.00 11 1015.9
20260904085209 70 124 2.6 7.0 0.00 0.00 0.00 11 1015.8
20260904084703 70 114 2.6 10.4 0.00 0.00 0.00 10 1015.8
20260904084157 71 170 1.7 10.4 0.00 0.00 0.00 10 1015.8
20260904083651 71 96 1.7 7.0 0.00 0.00 0.00 10 1015.8
20260904083145 71 89 2.6 10.4 0.00 0.00 0.00 10 1015.8
20260904082639 71 208 4.3 13.0 0.00 0.00 0.00 10 1015.8
20260904082133 71 127 4.3 13.0 0.00 0.00 0.00 10 1015.8
20260904081627 71 107 4.3 9.6 0.00 0.00 0.00 11 1015.9
20260904080106 71 164 4.3 10.4 0.00 0.00 0.00 12 1016.0
20260904075605 71 177 4.3 13.0 0.00 0.00 0.00 12 1016.0
20260904075050 72 158 5.2 13.0 0.00 0.00 0.00 12 1016.0
20260904074544 72 110 5.2 13.0 0.00 0.00 0.00 13 1016.0
20260904074038 72 155 5.2 10.4 0.00 0.00 0.00 13 1016.1
20260904073532 72 222 5.2 12.2 0.00 0.00 0.00 13 1016.1
20260904073026 72 157 5.2 12.2 0.00 0.00 0.00 13 1016.0
20260904072521 72 115 4.3 12.2 0.00 0.00 0.00 14 1016.0
20260904072016 72 165 4.3 13.9 0.00 0.00 0.00 14 1015.9
20260904071515 72 195 3.5 13.9 0.00 0.00 0.00 15 1016.0
20260904071013 72 188 3.5 9.6 0.00 0.00 0.00 15 1015.9
20260904070514 73 212 4.3 9.6 0.00 0.00 0.00 16 1015.9
20260904070014 72 205 4.3 12.2 0.00 0.00 0.00 16 1015.9
20260904065509 73 153 3.5 12.2 0.00 0.00 0.00 17 1016.0
20260904065010 73 204 2.6 10.4 0.00 0.00 0.00 17 1015.9
20260904064509 73 91 3.5 9.6 0.00 0.00 0.00 18 1015.9
20260904063509 73 115 3.5 8.7 0.00 0.00 0.00 18 1015.9
20260904062509 73 98 3.5 9.6 0.00 0.00 0.00 19 1015.9
20260904062011 73 105 3.5 13.9 0.00 0.00 0.00 19 1015.8
20260904061509 73 89 4.3 13.9 0.00 0.00 0.00 19 1015.8
20260904061009 73 123 3.5 11.3 0.00 0.00 0.00 19 1015.7
20260904060509 73 145 3.5 11.3 0.00 0.00 0.00 20 1015.7
20260904060013 73 105 2.6 10.4 0.00 0.00 0.00 21 1015.7
20260904055507 73 136 2.6 7.8 0.00 0.00 0.00 23 1015.7
20260904055001 73 104 2.6 8.7 0.00 0.00 0.00 23 1015.7
20260904054455 73 172 1.7 8.7 0.00 0.00 0.00 24 1015.7
20260904053949 74 214 2.6 5.2 0.00 0.00 0.00 25 1015.7
20260904053444 74 210 3.5 8.7 0.00 0.00 0.00 26 1015.8
20260904051419 74 166 2.6 7.8 0.00 0.00 0.00 27 1015.8
20260904050913 74 205 2.6 7.8 0.00 0.00 0.00 27 1015.7
20260904050407 74 227 2.6 10.4 0.00 0.00 0.00 26 1015.8
20260904045355 74 203 1.7 7.8 0.00 0.00 0.00 26 1015.9
20260904044849 75 187 2.6 6.1 0.00 0.00 0.00 26 1015.9
20260904044345 75 152 1.7 7.8 0.00 0.00 0.00 26 1015.9
20260904043331 76 231 3.5 7.8 0.00 0.00 0.00 26 1015.9
20260904041307 76 165 3.5 12.2 0.00 0.00 0.00 30 1015.8
20260904040801 76 191 4.3 12.2 0.00 0.00 0.00 30 1015.8
20260904040255 76 174 3.5 9.6 0.00 0.00 0.00 29 1015.8
20260904035750 76 146 2.6 9.6 0.00 0.00 0.00 28 1015.8
20260904034227 76 162 3.5 9.6 0.00 0.00 0.00 26 1015.6
20260904033721 76 239 2.6 9.6 0.00 0.00 0.00 25 1015.6
20260904033218 76 197 2.6 9.6 0.00 0.00 0.00 25 1015.6
20260904032218 76 266 2.6 9.6 0.00 0.00 0.00 24 1015.4
20260904031717 76 204 2.6 7.0 0.00 0.00 0.00 23 1015.3
20260904031219 77 207 2.6 7.0 0.00 0.00 0.00 23 1015.3
20260904030716 77 143 2.6 7.0 0.00 0.00 0.00 23 1015.3
20260904030218 77 224 3.5 7.8 0.00 0.00 0.00 22 1015.3
20260904025717 77 160 1.7 7.8 0.00 0.00 0.00 22 1015.3
20260904025219 77 232 1.7 5.2 0.00 0.00 0.00 22 1015.3
20260904024215 77 206 2.6 7.0 0.00 0.00 0.00 21 1015.2
20260904023714 77 179 3.5 13.9 0.00 0.00 0.00 21 1015.2
20260904023213 78 193 3.5 13.9 0.00 0.00 0.00 20 1015.2
20260904022713 78 195 2.6 7.8 0.00 0.00 0.00 20 1015.2
20260904021714 78 209 3.5 8.7 0.00 0.00 0.00 19 1015.1
20260904021214 78 173 3.5 13.9 0.00 0.00 0.00 18 1015.1
20260904020708 78 146 3.5 13.9 0.00 0.00 0.00 18 1015.1
20260904020202 78 210 3.5 10.4 0.00 0.00 0.00 18 1015.2
20260904015702 79 174 3.5 10.4 0.00 0.00 0.00 18 1015.2
20260904014202 79 205 2.6 7.0 0.00 0.00 0.00 16 1015.2
20260904013702 80 180 5.2 15.6 0.00 0.00 0.00 16 1015.4
20260904012701 81 203 6.1 17.4 0.00 0.00 0.00 14 1015.2
20260904012158 82 145 4.3 13.0 0.00 0.00 0.00 14 1015.3
20260904011700 83 126 2.6 10.4 0.00 0.00 0.00 15 1015.2
20260904010658 83 217 3.5 10.4 0.00 0.00 0.00 14 1015.3
20260904010159 84 215 4.3 8.7 0.00 0.00 0.00 14 1015.3
20260904005656 84 268 4.3 13.9 0.00 0.00 0.00 14 1015.3
20260904005158 84 237 3.5 13.9 0.00 0.00 0.00 13 1015.2
20260904004655 84 240 3.5 12.2 0.00 0.00 0.00 14 1015.2
20260904004159 84 229 4.3 12.2 0.00 0.00 0.00 14 1015.3
20260904003656 85 200 5.2 11.3 0.00 0.00 0.00 14 1015.3
20260904003155 85 164 4.3 11.3 0.00 0.00 0.00 13 1015.2
20260904002656 85 218 4.3 10.4 0.00 0.00 0.00 14 1015.3
20260904002156 85 224 4.3 13.9 0.00 0.00 0.00 14 1015.2
20260904001655 85 200 4.3 13.9 0.00 0.00 0.00 13 1015.2
20260904001157 85 268 5.2 12.2 0.00 0.00 0.00 13 1015.2
20260904000151 85 192 5.2 14.8 0.00 0.00 0.00 14 1015.2
20260903235651 86 106 4.3 13.0 0.00 0.00 0.00 13 1015.2